TimeCDT,TemperatureF,Dew PointF,Humidity,Sea Level PressureIn,VisibilityMPH,Wind Direction,Wind SpeedMPH,Gust SpeedMPH,PrecipitationIn,Events,Conditions,WindDirDegrees,DateUTC
12:53 AM,73.0,64.9,76,29.78,10.0,NW,5.8,-,N/A,,Clear,320,2013-09-02 05:53:00
1:53 AM,72.0,66.0,81,29.78,10.0,NNW,5.8,-,N/A,,Clear,340,2013-09-02 06:53:00
2:53 AM,70.0,66.9,90,29.79,10.0,NNW,3.5,-,N/A,,Clear,330,2013-09-02 07:53:00
3:53 AM,70.0,68.0,93,29.80,10.0,Calm,Calm,-,N/A,,Clear,0,2013-09-02 08:53:00
4:53 AM,69.1,66.0,90,29.81,10.0,Calm,Calm,-,N/A,,Clear,0,2013-09-02 09:53:00
5:53 AM,69.1,66.0,90,29.83,10.0,Calm,Calm,-,N/A,,Clear,0,2013-09-02 10:53:00
6:53 AM,68.0,64.9,90,29.86,10.0,North,4.6,-,N/A,,Partly Cloudy,350,2013-09-02 11:53:00
7:53 AM,71.1,64.9,81,29.88,10.0,Variable,5.8,-,N/A,,Clear,0,2013-09-02 12:53:00
8:53 AM,71.1,62.1,73,29.90,10.0,NNE,9.2,-,N/A,,Partly Cloudy,30,2013-09-02 13:53:00
9:53 AM,73.9,62.1,66,29.91,10.0,Variable,5.8,-,N/A,,Clear,0,2013-09-02 14:53:00
10:53 AM,73.9,61.0,64,29.92,10.0,Variable,5.8,-,N/A,,Clear,0,2013-09-02 15:53:00
11:53 AM,77.0,63.0,62,29.92,10.0,Variable,5.8,-,N/A,,Scattered Clouds,0,2013-09-02 16:53:00
12:53 PM,75.0,61.0,62,29.93,10.0,Variable,5.8,-,N/A,,Mostly Cloudy,0,2013-09-02 17:53:00
1:53 PM,77.0,61.0,58,29.92,10.0,North,5.8,-,N/A,,Scattered Clouds,350,2013-09-02 18:53:00
2:53 PM,75.9,61.0,60,29.91,10.0,North,9.2,-,N/A,,Partly Cloudy,10,2013-09-02 19:53:00
3:53 PM,73.9,60.1,62,29.92,10.0,North,9.2,-,N/A,,Partly Cloudy,350,2013-09-02 20:53:00
4:53 PM,71.1,61.0,70,29.92,10.0,North,9.2,-,N/A,,Partly Cloudy,10,2013-09-02 21:53:00
5:53 PM,69.1,60.1,73,29.93,10.0,North,5.8,-,N/A,,Partly Cloudy,10,2013-09-02 22:53:00
6:53 PM,66.0,60.1,81,29.94,10.0,North,5.8,-,N/A,,Scattered Clouds,10,2013-09-02 23:53:00
7:53 PM,64.9,57.9,78,29.94,10.0,NNE,8.1,-,N/A,,Partly Cloudy,30,2013-09-03 00:53:00
8:53 PM,64.0,57.9,80,29.96,10.0,NNE,5.8,-,N/A,,Partly Cloudy,20,2013-09-03 01:53:00
9:53 PM,63.0,57.0,81,29.97,10.0,Calm,Calm,-,N/A,,Clear,0,2013-09-03 02:53:00
10:53 PM,62.1,57.0,84,29.98,10.0,Calm,Calm,-,N/A,,Mostly Cloudy,0,2013-09-03 03:53:00
11:53 PM,59.0,55.0,87,29.98,10.0,Calm,Calm,-,N/A,,Scattered Clouds,0,2013-09-03 04:53:00